Location: ????????
(55.3975°N, 38.2844°E)
Time: 13:40:17
(UTC+00:00)

BlueWalker 3 - Pass Details

Date: 16 August 2024
Orbit: 475 x 487 km, 53.2° (Epoch: 14 September)

Event Time Altitude Azimuth Distance (km) Brightness Sun altitude
Exits shadow 21:34:29 12° 94° (E) 1,559 4.4 -21.2°
Drops below altitude 10° 21:34:51 10° 91° (E) 1,685 4.6 -21.2°
Sets 21:37:15 0° 79° (E) 2,571 5.7 -21.2°
